Regional Weather Roundup
Issued by NWS Little Rock, AR

Home | Current Version | Previous Version | Graphics & Text | Print | Product List | Glossary Off
Versions: 1 2 3 4 5 6 7 8 9 10 11 12 13 14 15 16 17 18 19 20 21 22 23 24 25 26 27 28 29 30 31 32 33 34 35 36 37 38 39 40 41 42 43 44 45 46 47 48 49 50

000
ASUS44 KLZK 230005
RWRLZK

WEATHER ROUNDUP FOR ARKANSAS
NATIONAL WEATHER SERVICE LITTLE ROCK AR
700 PM CDT FRI AUG 22 2014

NOTE: "FAIR" INDICATES FEW OR NO CLOUDS BELOW 12,000 FEET WITH NO
SIGNIFICANT WEATHER AND/OR OBSTRUCTIONS TO VISIBILITY.

ARZ001-003-010-029-230100-
NORTHWEST ARKANSAS

CITY           SKY/WX    TMP DP  RH WIND       PRES   REMARKS
FAYETTEVILLE   SUNNY     89  72  56 SW9       29.99S HX  96
6HR MIN TEMP:  89; 6HR MAX TEMP:  93;

FORT SMITH     MOSUNNY   94  73  50 S8        29.94S HX 103
6HR MIN TEMP:  93; 6HR MAX TEMP:  97;

HARRISON       CLEAR     88  73  61 S6        30.00R HX  95
6HR MIN TEMP:  88; 6HR MAX TEMP:  94;

BENTONVILLE    SUNNY     91  72  52 SW9       30.00S HX  98
6HR MIN TEMP:  91; 6HR MAX TEMP:  95;

ROGERS         SUNNY     91  68  46 SW13      30.00R HX  95
6HR MIN TEMP:  91; 6HR MAX TEMP:  95;

SILOAM SPGS    SUNNY     90  70  51 S8        29.98S HX  95
6HR MIN TEMP:  90; 6HR MAX TEMP:  93;

HIGHFILL       SUNNY     90  71  53 S7        29.98S HX  96
6HR MIN TEMP:  90; 6HR MAX TEMP:  95;

SPRINGDALE     SUNNY     91  73  55 SW12G20   30.01R HX 100
$$

ARZ004-005-016-230100-
NORTH CENTRAL ARKANSAS

CITY           SKY/WX    TMP DP  RH WIND       PRES   REMARKS
BATESVILLE     CLEAR     93  73  52 S7        29.95S HX 102
6HR MIN TEMP:  93; 6HR MAX TEMP:  99;

FLIPPIN          N/A     93  70  46 S9G16     29.97R HX  99
6HR MIN TEMP:  91; 6HR MAX TEMP:  97;

MTN HOME       PTCLDY    91  70  49 SW3       29.97R HX  96
6HR MIN TEMP:  91; 6HR MAX TEMP:  98;

$$

ARZ040-041-230100-
WEST CENTRAL ARKANSAS

CITY           SKY/WX    TMP DP  RH WIND       PRES   REMARKS
MENA           SUNNY     90  77  66 CALM      30.01F HX 102
MOUNT IDA      CLEAR     87  76  69 CALM      29.99F HX  97
6HR MIN TEMP:  87; 6HR MAX TEMP:  92;

$$

ARZ009-017-025-026-028-230100-
NORTHEAST ARKANSAS

CITY           SKY/WX    TMP DP  RH WIND       PRES   REMARKS
CORNING        LGT RAIN  90  77  66 S8        29.94S HX 102
JONESBORO      PTCLDY    90  73  57 S12       29.95S HX  98
6HR MIN TEMP:  90; 6HR MAX TEMP:  96;

NEWPORT        CLEAR     90  75  61 S12       29.96S HX 100
6HR MIN TEMP:  90; 6HR MAX TEMP:  98;

WALNUT RIDGE   PTCLDY    90  73  58 S14       29.93S HX  98
6HR MIN TEMP:  90; 6HR MAX TEMP:  95;

BLYTHEVILLE    PTCLDY    88  79  74 SW7       29.96F HX 103
6HR MIN TEMP:  88; 6HR MAX TEMP:  93;

$$

ARZ022-023-033-042-044-230100-
CENTRAL ARKANSAS

CITY           SKY/WX    TMP DP  RH WIND       PRES   REMARKS
LITTLE ROCK    PTCLDY    89  74  60 S12       29.97F HX  98
6HR MIN TEMP:  89; 6HR MAX TEMP:  95;

N LITTLE ROCK  PTCLDY    89  77  67 SW9       29.97F HX 102
6HR MIN TEMP:  89; 6HR MAX TEMP:  95;

JACKSONVILLE   CLEAR     90  77  66 S6        29.97S HX 102
6HR MIN TEMP:  90; 6HR MAX TEMP:  95;

SEARCY           N/A     89  77  67 CALM        N/A  HX 101
6HR MIN TEMP:  89; 6HR MAX TEMP:  96;

HOT SPRINGS    PTCLDY    89  75  63 SW9       30.00S HX  99
6HR MIN TEMP:  88; 6HR MAX TEMP:  92;

RUSSELLVILLE   PTCLDY    86  79  79 CALM      29.96S HX  99
6HR MIN TEMP:  86; 6HR MAX TEMP:  95;

CLINTON        FAIR      93  73  52 S5        29.96S HX 102
$$

ARZ036-230100-
EAST ARKANSAS

CITY           SKY/WX    TMP DP  RH WIND       PRES   REMARKS
WEST MEMPHIS   CLEAR     89  77  67 SW3       29.96F HX 101
6HR MIN TEMP:  89; 6HR MAX TEMP:  94;

$$

ARZ050-053-066-070-073-230100-
SOUTHWEST ARKANSAS

CITY           SKY/WX    TMP DP  RH WIND       PRES   REMARKS
ARKADELPHIA    FAIR      91  79  68 CALM      29.98F HX 107
6HR MIN TEMP:  90; 6HR MAX TEMP:  94;

CAMDEN         CLEAR     90  73  58 SW5       29.99F HX  98
TEXARKANA      SUNNY     92  71  50 S5        29.98F HX  98
6HR MIN TEMP:  90; 6HR MAX TEMP:  96;

EL DORADO      CLEAR     89  74  60 S3        30.01S HX  98
6HR MIN TEMP:  89; 6HR MAX TEMP:  92;

DE QUEEN       SUNNY     91  74  57 CALM      29.95F HX 100
6HR MIN TEMP:  87; 6HR MAX TEMP:  92;

$$

ARZ056-057-069-230100-
SOUTHEAST ARKANSAS

CITY           SKY/WX    TMP DP  RH WIND       PRES   REMARKS
PINE BLUFF     CLEAR     89  75  63 S6        29.98F HX  99
6HR MIN TEMP:  89; 6HR MAX TEMP:  93;

STUTTGART      CLEAR     90  77  66 SW6       29.99F HX 102
6HR MIN TEMP:  90; 6HR MAX TEMP:  93;

MONTICELLO     CLEAR     90  73  57 S5        29.99F HX  98
6HR MIN TEMP:  90; 6HR MAX TEMP:  94;


$$




USA.gov is the U.S. government's official web portal to all federal, state and local government web resources and services.